,,Stat5,,Stat1,,Stat2,,Stat3,,Stat4,,Wind1,,Wind1,
time,status,PA1M_AVG,status,PR1M_SUM,status,RH1M_AVG,status,SR1M_AVG,status,TA1M_AVG,status,W1dAve1m,status,W1sAve1m,
2003-09-20, 00:00:00,VALID,920.394,VALID,0,VALID,96.5733,VALID,0,VALID,18.7752,VALID,139,VALID,0.143446,
2003-09-20, 00:01:00,VALID,920.391,VALID,0,VALID,96.0494,VALID,0,VALID,18.7546,VALID,139,VALID,0,
2003-09-20, 00:02:00,VALID,920.375,VALID,0,VALID,95.7582,VALID,-0.0169808,VALID,18.7427,VALID,151,VALID,0.406473,
2003-09-20, 00:03:00,VALID,920.352,VALID,0,VALID,95.8269,VALID,-0.0169808,VALID,18.7424,VALID,153,VALID,0.963682,
2003-09-20, 00:04:00,VALID,920.323,VALID,0,VALID,96.2821,VALID,0,VALID,18.7427,VALID,144,VALID,0.906456,
2003-09-20, 00:05:00,VALID,920.301,VALID,0,VALID,96.5339,VALID,0.0169808,VALID,18.7583,VALID,146,VALID,0.733319,
2003-09-20, 00:06:00,VALID,920.299,VALID,0,VALID,96.6547,VALID,-0.0169808,VALID,18.7777,VALID,140,VALID,0.818979,
2003-09-20, 00:07:00,VALID,920.294,VALID,0,VALID,96.8746,VALID,0,VALID,18.8102,VALID,141,VALID,0.699653,
2003-09-20, 00:08:00,VALID,920.295,VALID,0,VALID,96.9014,VALID,0,VALID,18.8259,VALID,140,VALID,0.709794,
2003-09-20, 00:09:00,VALID,920.28,VALID,0,VALID,96.7488,VALID,0,VALID,18.8582,VALID,134,VALID,0.621995,
2003-09-20, 00:10:00,VALID,920.258,VALID,0,VALID,96.5898,VALID,0.0169808,VALID,18.8713,VALID,134,VALID,0.636308,
2003-09-20, 00:11:00,VALID,920.235,VALID,0,VALID,96.4499,VALID,0,VALID,18.8912,VALID,126,VALID,0.522436,
2003-09-20, 00:12:00,VALID,920.216,VALID,0,VALID,96.4576,VALID,0,VALID,18.8944,VALID,116,VALID,0.657072,
2003-09-20, 00:13:00,VALID,920.189,VALID,0,VALID,96.4868,VALID,0,VALID,18.9391,VALID,106,VALID,0.999399,
2003-09-20, 00:14:00,VALID,920.173,VALID,0,VALID,96.221,VALID,0,VALID,18.9846,VALID,95,VALID,0.80293,
2003-09-20, 00:15:00,VALID,920.16,VALID,0,VALID,95.6692,VALID,0,VALID,18.9876,VALID,93,VALID,0.506757,
2003-09-20, 00:16:00,VALID,920.172,VALID,0,VALID,95.2203,VALID,0,VALID,18.9426,VALID,93,VALID,0.132227,
2003-09-20, 00:17:00,VALID,920.173,VALID,0,VALID,95.3932,VALID,0,VALID,18.9357,VALID,93,VALID,0.229968,
2003-09-20, 00:18:00,VALID,920.16,VALID,0,VALID,95.5547,VALID,-0.0169808,VALID,18.9163,VALID,100,VALID,0.558799,
2003-09-20, 00:19:00,VALID,920.133,VALID,0,VALID,95.7887,VALID,0,VALID,18.9265,VALID,97,VALID,0.783253,
2003-09-20, 00:20:00,VALID,920.095,VALID,0,VALID,94.7981,VALID,0.0339617,VALID,18.8776,VALID,70,VALID,0.57278,
2003-09-20, 00:21:00,VALID,920.074,VALID,0,VALID,94.6621,VALID,0,VALID,18.8063,VALID,63,VALID,0.461939,
2003-09-20, 00:22:00,VALID,920.07,VALID,0,VALID,94.7053,VALID,0,VALID,18.7616,VALID,63,VALID,0.266406,
2003-09-20, 00:23:00,VALID,920.071,VALID,0,VALID,94.7511,VALID,0,VALID,18.7226,VALID,63,VALID,0.0732686,
2003-09-20, 00:24:00,VALID,920.066,VALID,0,VALID,95.1262,VALID,0.0169808,VALID,18.7101,VALID,86,VALID,0.322461,
2003-09-20, 00:25:00,VALID,920.065,VALID,0,VALID,95.6094,VALID,0,VALID,18.7032,VALID,131,VALID,0.478365,
2003-09-20, 00:26:00,VALID,920.056,VALID,0,VALID,95.7976,VALID,0,VALID,18.6841,VALID,125,VALID,0.259046,
2003-09-20, 00:27:00,VALID,920.045,VALID,0,VALID,95.701,VALID,-0.0339617,VALID,18.655,VALID,117,VALID,0.388822,
2003-09-20, 00:28:00,VALID,920.039,VALID,0,VALID,95.7264,VALID,0,VALID,18.6264,VALID,117,VALID,0.367804,
2003-09-20, 00:29:00,VALID,920.044,VALID,0,VALID,95.837,VALID,0.0339617,VALID,18.581,VALID,117,VALID,0.432492,
2003-09-20, 00:30:00,VALID,920.053,VALID,0,VALID,96.3304,VALID,0,VALID,18.5778,VALID,117,VALID,0.426172,
2003-09-20, 00:31:00,VALID,920.049,VALID,0,VALID,96.3304,VALID,0,VALID,18.5646,VALID,116,VALID,0.520904,
2003-09-20, 00:32:00,VALID,920.039,VALID,0,VALID,96.174,VALID,0,VALID,18.5549,VALID,115,VALID,0.566602,
2003-09-20, 00:33:00,VALID,920.026,VALID,0,VALID,96.0456,VALID,0,VALID,18.5231,VALID,115,VALID,0.186298,
2003-09-20, 00:34:00,VALID,920.018,VALID,0,VALID,96.2045,VALID,0,VALID,18.4837,VALID,114,VALID,0.413857,
2003-09-20, 00:35:00,VALID,920.024,VALID,0,VALID,96.5415,VALID,0,VALID,18.4747,VALID,85,VALID,0.682492,
2003-09-20, 00:36:00,VALID,920.016,VALID,0,VALID,96.97,VALID,0,VALID,18.4805,VALID,80,VALID,0.731702,
2003-09-20, 00:37:00,VALID,920.019,VALID,0,VALID,97.1035,VALID,0,VALID,18.5035,VALID,81,VALID,0.819712,
2003-09-20, 00:38:00,VALID,920.007,VALID,0,VALID,97.3413,VALID,0,VALID,18.5353,VALID,89,VALID,0.839258,
2003-09-20, 00:39:00,VALID,919.986,VALID,0,VALID,97.4392,VALID,-0.0169808,VALID,18.5932,VALID,93,VALID,0.848606,
2003-09-20, 00:40:00,VALID,919.971,VALID,0,VALID,97.2765,VALID,0,VALID,18.655,VALID,102,VALID,0.733398,
2003-09-20, 00:41:00,VALID,919.976,VALID,0,VALID,97.2053,VALID,0,VALID,18.6806,VALID,110,VALID,0.805088,
2003-09-20, 00:42:00,VALID,919.976,VALID,0,VALID,97.1811,VALID,0.0169808,VALID,18.7258,VALID,127,VALID,0.934005,
2003-09-20, 00:43:00,VALID,919.951,VALID,0,VALID,96.9573,VALID,0,VALID,18.7779,VALID,123,VALID,0.897236,
2003-09-20, 00:44:00,VALID,919.966,VALID,0,VALID,96.647,VALID,0.0169808,VALID,18.7998,VALID,130,VALID,0.810855,
2003-09-20, 00:45:00,VALID,919.968,VALID,0,VALID,96.4436,VALID,0,VALID,18.8227,VALID,122,VALID,0.923678,
2003-09-20, 00:46:00,VALID,919.95,VALID,0,VALID,96.3012,VALID,0.0169808,VALID,18.819,VALID,120,VALID,0.819336,
2003-09-20, 00:47:00,VALID,919.936,VALID,0,VALID,95.9693,VALID,0.0169808,VALID,18.8192,VALID,108,VALID,0.76647,
2003-09-20, 00:48:00,VALID,919.91,VALID,0,VALID,95.8739,VALID,0.0339617,VALID,18.7973,VALID,110,VALID,0.823047,
2003-09-20, 00:49:00,VALID,919.894,VALID,0,VALID,96.0405,VALID,0,VALID,18.7516,VALID,109,VALID,0.718149,
2003-09-20, 00:50:00,VALID,919.887,VALID,0,VALID,95.9655,VALID,0,VALID,18.7233,VALID,130,VALID,0.562294,
2003-09-20, 00:51:00,VALID,919.891,VALID,0,VALID,96.1854,VALID,0.0169808,VALID,18.6841,VALID,142,VALID,0.541066,
2003-09-20, 00:52:00,VALID,919.88,VALID,0,VALID,96.4474,VALID,0,VALID,18.697,VALID,121,VALID,0.727796,
2003-09-20, 00:53:00,VALID,919.871,VALID,0,VALID,96.2236,VALID,0,VALID,18.7062,VALID,104,VALID,0.5623,
2003-09-20, 00:54:00,VALID,919.868,VALID,0,VALID,95.8256,VALID,0,VALID,18.7196,VALID,80,VALID,0.748242,
2003-09-20, 00:55:00,VALID,919.866,VALID,0,VALID,95.4695,VALID,0,VALID,18.7101,VALID,78,VALID,0.688345,
2003-09-20, 00:56:00,VALID,919.861,VALID,0,VALID,95.205,VALID,0,VALID,18.7164,VALID,78,VALID,0.244531,
2003-09-20, 00:57:00,VALID,919.867,VALID,0,VALID,95.2355,VALID,0,VALID,18.7072,VALID,78,VALID,0.00400641,
2003-09-20, 00:58:00,VALID,919.868,VALID,0,VALID,95.5814,VALID,0,VALID,18.7168,VALID,95,VALID,0.319285,
2003-09-20, 00:59:00,VALID,919.859,VALID,0,VALID,95.9108,VALID,-0.0339617,VALID,18.7265,VALID,110,VALID,0.366787,
2003-09-20, 01:00:00,VALID,919.84,VALID,0,VALID,95.7302,VALID,0,VALID,18.7134,VALID,110,VALID,0.22574,
2003-09-20, 01:01:00,VALID,919.843,VALID,0,VALID,95.0766,VALID,0,VALID,18.6389,VALID,99,VALID,0.382212,
2003-09-20, 01:02:00,VALID,919.836,VALID,0,VALID,95.4326,VALID,-0.0339617,VALID,18.5842,VALID,69,VALID,0.591992,
2003-09-20, 01:03:00,VALID,919.82,VALID,0,VALID,96.099,VALID,-0.0169808,VALID,18.6073,VALID,69,VALID,0.54413,
2003-09-20, 01:04:00,VALID,919.805,VALID,0,VALID,95.9731,VALID,0,VALID,18.626,VALID,78,VALID,0.517383,
2003-09-20, 01:05:00,VALID,919.782,VALID,0,VALID,95.6971,VALID,0,VALID,18.649,VALID,84,VALID,0.517428,
2003-09-20, 01:06:00,VALID,919.782,VALID,0,VALID,94.9609,VALID,0,VALID,18.6458,VALID,83,VALID,0.464433,
2003-09-20, 01:07:00,VALID,919.765,VALID,0,VALID,94.6226,VALID,0,VALID,18.5812,VALID,83,VALID,0.344351,
2003-09-20, 01:08:00,VALID,919.766,VALID,0,VALID,94.7867,VALID,0,VALID,18.5328,VALID,83,VALID,0.287418,
2003-09-20, 01:09:00,VALID,919.763,VALID,0,VALID,94.9164,VALID,0,VALID,18.4906,VALID,83,VALID,0.214143,
2003-09-20, 01:10:00,VALID,919.746,VALID,0,VALID,95.1135,VALID,0,VALID,18.4558,VALID,83,VALID,0.0292969,
2003-09-20, 01:11:00,VALID,919.725,VALID,0,VALID,95.2546,VALID,-0.0169808,VALID,18.423,VALID,83,VALID,0.211993,
2003-09-20, 01:12:00,VALID,919.705,VALID,0,VALID,95.4657,VALID,0,VALID,18.3938,VALID,83,VALID,0.3625,
2003-09-20, 01:13:00,VALID,919.691,VALID,0,VALID,95.7289,VALID,0,VALID,18.3712,VALID,83,VALID,0.474559,
2003-09-20, 01:14:00,VALID,919.691,VALID,0,VALID,96.0189,VALID,-0.0169808,VALID,18.3781,VALID,83,VALID,0.42722,
2003-09-20, 01:15:00,VALID,919.699,VALID,0,VALID,96.1384,VALID,-0.0169808,VALID,18.3848,VALID,82,VALID,0.403245,
2003-09-20, 01:16:00,VALID,919.698,VALID,0,VALID,96.0443,VALID,0,VALID,18.3746,VALID,80,VALID,0.067023,
2003-09-20, 01:17:00,VALID,919.697,VALID,0,VALID,95.5941,VALID,-0.0169808,VALID,18.3453,VALID,80,VALID,0,
2003-09-20, 01:18:00,VALID,919.673,VALID,0,VALID,95.4466,VALID,0,VALID,18.3071,VALID,80,VALID,0.129102,
2003-09-20, 01:19:00,VALID,919.656,VALID,0,VALID,95.7976,VALID,-0.0169808,VALID,18.2808,VALID,52,VALID,0.559755,
2003-09-20, 01:20:00,VALID,919.642,VALID,0,VALID,95.6959,VALID,0,VALID,18.2425,VALID,43,VALID,0.742578,
2003-09-20, 01:21:00,VALID,919.636,VALID,0,VALID,95.996,VALID,0,VALID,18.2328,VALID,43,VALID,0.612179,
2003-09-20, 01:22:00,VALID,919.632,VALID,0,VALID,96.1931,VALID,0,VALID,18.2489,VALID,43,VALID,0.334087,
2003-09-20, 01:23:00,VALID,919.634,VALID,0,VALID,96.1206,VALID,-0.0169808,VALID,18.2489,VALID,43,VALID,0.0633013,
2003-09-20, 01:24:00,VALID,919.628,VALID,0,VALID,96.2223,VALID,0,VALID,18.2653,VALID,43,VALID,0,
2003-09-20, 01:25:00,VALID,919.63,VALID,0,VALID,96.015,VALID,0,VALID,18.2649,VALID,43,VALID,0,
2003-09-20, 01:26:00,VALID,919.624,VALID,0,VALID,95.94,VALID,-0.0169808,VALID,18.2845,VALID,43,VALID,0,
2003-09-20, 01:27:00,VALID,919.618,VALID,0,VALID,95.645,VALID,0,VALID,18.2778,VALID,43,VALID,0,
2003-09-20, 01:28:00,VALID,919.616,VALID,0,VALID,95.4733,VALID,-0.0339617,VALID,18.2549,VALID,43,VALID,0,
2003-09-20, 01:29:00,VALID,919.613,VALID,0,VALID,95.4848,VALID,0,VALID,18.2517,VALID,43,VALID,0,
2003-09-20, 01:30:00,VALID,919.6,VALID,0,VALID,95.6539,VALID,0,VALID,18.2552,VALID,43,VALID,0,
2003-09-20, 01:31:00,VALID,919.611,VALID,0,VALID,95.9476,VALID,-0.0169808,VALID,18.2646,VALID,43,VALID,0,
2003-09-20, 01:32:00,VALID,919.57,VALID,0,VALID,96.0367,VALID,0,VALID,18.2872,VALID,43,VALID,0.057977,
2003-09-20, 01:33:00,VALID,919.552,VALID,0,VALID,95.9947,VALID,0,VALID,18.3101,VALID,43,VALID,0.330729,
2003-09-20, 01:34:00,VALID,919.531,VALID,0,VALID,95.9184,VALID,-0.0679233,VALID,18.3594,VALID,43,VALID,0.215039,
2003-09-20, 01:35:00,VALID,919.526,VALID,0,VALID,95.7099,VALID,-0.0169808,VALID,18.4014,VALID,43,VALID,0,
2003-09-20, 01:36:00,VALID,919.533,VALID,0,VALID,95.4899,VALID,-0.0339617,VALID,18.4233,VALID,43,VALID,0,
2003-09-20, 01:37:00,VALID,919.531,VALID,0,VALID,95.2216,VALID,-0.0169808,VALID,18.4687,VALID,43,VALID,0,
2003-09-20, 01:38:00,VALID,919.527,VALID,0,VALID,94.9901,VALID,-0.0339617,VALID,18.4848,VALID,43,VALID,0,
2003-09-20, 01:39:00,VALID,919.51,VALID,0,VALID,94.8388,VALID,0,VALID,18.5171,VALID,43,VALID,0.0204327,
2003-09-20, 01:40:00,VALID,919.492,VALID,0,VALID,94.7485,VALID,-0.0169808,VALID,18.5206,VALID,101,VALID,0.502878,
2003-09-20, 01:41:00,VALID,919.491,VALID,0,VALID,94.8795,VALID,-0.0509425,VALID,18.504,VALID,151,VALID,0.553886,
2003-09-20, 01:42:00,VALID,919.484,VALID,0,VALID,94.9558,VALID,-0.0339617,VALID,18.4756,VALID,158,VALID,0.266211,
2003-09-20, 01:43:00,VALID,919.477,VALID,0,VALID,95.0626,VALID,-0.0339617,VALID,18.4332,VALID,158,VALID,0.112331,
2003-09-20, 01:44:00,VALID,919.479,VALID,0,VALID,95.0944,VALID,-0.0169808,VALID,18.4007,VALID,157,VALID,0.0462891,
2003-09-20, 01:45:00,VALID,919.479,VALID,0,VALID,95.0906,VALID,-0.0339617,VALID,18.3525,VALID,157,VALID,0.382212,
2003-09-20, 01:46:00,VALID,919.477,VALID,0,VALID,95.1974,VALID,0,VALID,18.3174,VALID,155,VALID,0.156867,
2003-09-20, 01:47:00,VALID,919.468,VALID,0,VALID,95.3576,VALID,-0.0509425,VALID,18.2683,VALID,155,VALID,0.0370593,
2003-09-20, 01:48:00,VALID,919.449,VALID,0,VALID,95.3525,VALID,-0.0169808,VALID,18.2298,VALID,155,VALID,0.0511924,
2003-09-20, 01:49:00,VALID,919.453,VALID,0,VALID,95.4708,VALID,-0.0339617,VALID,18.2072,VALID,155,VALID,0,
2003-09-20, 01:50:00,VALID,919.443,VALID,0,VALID,95.7391,VALID,-0.0339617,VALID,18.2074,VALID,149,VALID,0.288086,
2003-09-20, 01:51:00,VALID,919.441,VALID,0,VALID,95.7505,VALID,-0.0339617,VALID,18.2074,VALID,135,VALID,0.453547,
2003-09-20, 01:52:00,VALID,919.428,VALID,0,VALID,95.6412,VALID,-0.0509425,VALID,18.1883,VALID,128,VALID,0.408398,
2003-09-20, 01:53:00,VALID,919.422,VALID,0,VALID,95.467,VALID,0,VALID,18.1556,VALID,127,VALID,0.0554888,
2003-09-20, 01:54:00,VALID,919.403,VALID,0,VALID,95.6081,VALID,-0.0339617,VALID,18.1336,VALID,127,VALID,0.132401,
2003-09-20, 01:55:00,VALID,919.393,VALID,0,VALID,95.7633,VALID,-0.0509425,VALID,18.1203,VALID,127,VALID,0.119391,
2003-09-20, 01:56:00,VALID,919.4,VALID,0,VALID,95.9057,VALID,-0.0509425,VALID,18.1272,VALID,127,VALID,0.0343339,
2003-09-20, 01:57:00,VALID,919.423,VALID,0,VALID,95.9731,VALID,0,VALID,18.1231,VALID,127,VALID,0,
2003-09-20, 01:58:00,VALID,919.431,VALID,0,VALID,95.7645,VALID,0.0849042,VALID,18.1125,VALID,127,VALID,0,
2003-09-20, 01:59:00,VALID,919.425,VALID,0,VALID,95.5725,VALID,0.0679233,VALID,18.1023,VALID,127,VALID,0,
2003-09-20, 02:00:00,VALID,919.418,VALID,0,VALID,95.2635,VALID,0.0849042,VALID,18.0799,VALID,127,VALID,0,
2003-09-20, 02:01:00,VALID,919.393,VALID,0,VALID,95.1351,VALID,0.0679233,VALID,18.0454,VALID,127,VALID,0,
2003-09-20, 02:02:00,VALID,919.399,VALID,0,VALID,95.3843,VALID,0.0509425,VALID,18.0223,VALID,127,VALID,0,
2003-09-20, 02:03:00,VALID,919.396,VALID,0,VALID,95.7836,VALID,0.0849042,VALID,18.0414,VALID,127,VALID,0,
2003-09-20, 02:04:00,VALID,919.374,VALID,0,VALID,95.9566,VALID,0.0509425,VALID,18.0673,VALID,86,VALID,0.176604,
2003-09-20, 02:05:00,VALID,919.349,VALID,0,VALID,96.0863,VALID,0.101885,VALID,18.1288,VALID,68,VALID,0.459535,
2003-09-20, 02:06:00,VALID,919.338,VALID,0,VALID,95.8269,VALID,0.0169808,VALID,18.1708,VALID,68,VALID,0.414844,
2003-09-20, 02:07:00,VALID,919.333,VALID,0,VALID,95.4225,VALID,0.0679233,VALID,18.1932,VALID,68,VALID,0.196368,
2003-09-20, 02:08:00,VALID,919.332,VALID,0,VALID,95.336,VALID,0.0679233,VALID,18.2353,VALID,57,VALID,0.205469,
2003-09-20, 02:09:00,VALID,919.313,VALID,0,VALID,95.3029,VALID,0.0679233,VALID,18.284,VALID,30,VALID,0.249599,
2003-09-20, 02:10:00,VALID,919.314,VALID,0,VALID,94.8871,VALID,0.0509425,VALID,18.2902,VALID,29,VALID,0,
2003-09-20, 02:11:00,VALID,919.28,VALID,0,VALID,94.9291,VALID,0.101885,VALID,18.3131,VALID,29,VALID,0.130208,
2003-09-20, 02:12:00,VALID,919.26,VALID,0,VALID,94.7282,VALID,0.0339617,VALID,18.3463,VALID,80,VALID,0.528988,
2003-09-20, 02:13:00,VALID,919.229,VALID,0,VALID,94.5756,VALID,-0.0339617,VALID,18.3689,VALID,92,VALID,0.471354,
2003-09-20, 02:14:00,VALID,919.23,VALID,0,VALID,94.1687,VALID,-0.0339617,VALID,18.4173,VALID,91,VALID,0.258594,
2003-09-20, 02:15:00,VALID,919.255,VALID,0,VALID,93.8317,VALID,-0.0169808,VALID,18.4304,VALID,91,VALID,0,
2003-09-20, 02:16:00,VALID,919.284,VALID,0,VALID,93.6702,VALID,-0.0509425,VALID,18.4311,VALID,91,VALID,0,
2003-09-20, 02:17:00,VALID,919.301,VALID,0,VALID,93.599,VALID,-0.0679233,VALID,18.4304,VALID,91,VALID,0,
2003-09-20, 02:18:00,VALID,919.282,VALID,0,VALID,93.7389,VALID,-0.0509425,VALID,18.4367,VALID,91,VALID,0,
2003-09-20, 02:19:00,VALID,919.256,VALID,0,VALID,93.6842,VALID,-0.0679233,VALID,18.4431,VALID,91,VALID,0,
2003-09-20, 02:20:00,VALID,919.242,VALID,0,VALID,93.6906,VALID,0,VALID,18.4593,VALID,91,VALID,0.281044,
2003-09-20, 02:21:00,VALID,919.236,VALID,0,VALID,93.5049,VALID,0,VALID,18.4724,VALID,91,VALID,0.190505,
2003-09-20, 02:22:00,VALID,919.253,VALID,0,VALID,93.1412,VALID,-0.0679233,VALID,18.453,VALID,91,VALID,0.0181641,
2003-09-20, 02:23:00,VALID,919.253,VALID,0,VALID,93.2684,VALID,-0.0509425,VALID,18.3915,VALID,91,VALID,0.0272382,
2003-09-20, 02:24:00,VALID,919.248,VALID,0,VALID,93.6715,VALID,-0.0339617,VALID,18.3366,VALID,91,VALID,0.329102,
2003-09-20, 02:25:00,VALID,919.253,VALID,0,VALID,93.5265,VALID,-0.0509425,VALID,18.2402,VALID,91,VALID,0.285256,
2003-09-20, 02:26:00,VALID,919.245,VALID,0,VALID,93.7656,VALID,-0.0339617,VALID,18.13,VALID,91,VALID,0.0721628,
2003-09-20, 02:27:00,VALID,919.249,VALID,0,VALID,94.1738,VALID,-0.0169808,VALID,18.0398,VALID,91,VALID,0.0711138,
2003-09-20, 02:28:00,VALID,919.248,VALID,0,VALID,94.9978,VALID,-0.0339617,VALID,18.0497,VALID,91,VALID,0.0530428,
2003-09-20, 02:29:00,VALID,919.229,VALID,0,VALID,95.2597,VALID,-0.0509425,VALID,18.0919,VALID,91,VALID,0.0350561,
2003-09-20, 02:30:00,VALID,919.208,VALID,0,VALID,95.4543,VALID,-0.0679233,VALID,18.1175,VALID,92,VALID,0.110547,
2003-09-20, 02:31:00,VALID,919.201,VALID,0,VALID,95.3818,VALID,-0.0679233,VALID,18.1595,VALID,92,VALID,0.300887,
2003-09-20, 02:32:00,VALID,919.2,VALID,0,VALID,95.0041,VALID,-0.0679233,VALID,18.221,VALID,92,VALID,0.124805,
2003-09-20, 02:33:00,VALID,919.223,VALID,0,VALID,94.1382,VALID,-0.0169808,VALID,18.2208,VALID,92,VALID,0,
2003-09-20, 02:34:00,VALID,919.22,VALID,0,VALID,94.203,VALID,-0.0509425,VALID,18.2397,VALID,92,VALID,0,
2003-09-20, 02:35:00,VALID,919.222,VALID,0,VALID,94.4929,VALID,-0.0169808,VALID,18.3373,VALID,92,VALID,0,
2003-09-20, 02:36:00,VALID,919.185,VALID,0,VALID,94.3645,VALID,-0.0509425,VALID,18.3758,VALID,92,VALID,0,
2003-09-20, 02:37:00,VALID,919.171,VALID,0,VALID,93.744,VALID,-0.0679233,VALID,18.3822,VALID,92,VALID,0,
2003-09-20, 02:38:00,VALID,919.16,VALID,0,VALID,93.4693,VALID,-0.0509425,VALID,18.3691,VALID,92,VALID,0,
2003-09-20, 02:39:00,VALID,919.17,VALID,0,VALID,92.6262,VALID,-0.0339617,VALID,18.3075,VALID,92,VALID,0.162584,
2003-09-20, 02:40:00,VALID,919.169,VALID,0,VALID,93.3485,VALID,0,VALID,18.3142,VALID,92,VALID,0.29668,
2003-09-20, 02:41:00,VALID,919.146,VALID,0,VALID,93.7414,VALID,-0.0169808,VALID,18.3693,VALID,91,VALID,0.0442708,
2003-09-20, 02:42:00,VALID,919.115,VALID,0,VALID,93.3917,VALID,-0.0169808,VALID,18.3922,VALID,3,VALID,0.307155,
2003-09-20, 02:43:00,VALID,919.116,VALID,0,VALID,92.7852,VALID,-0.0509425,VALID,18.3825,VALID,359,VALID,0.051883,
2003-09-20, 02:44:00,VALID,919.114,VALID,0,VALID,92.9339,VALID,-0.0339617,VALID,18.3624,VALID,359,VALID,0,
2003-09-20, 02:45:00,VALID,919.105,VALID,0,VALID,92.9276,VALID,-0.0169808,VALID,18.3209,VALID,359,VALID,0,
2003-09-20, 02:46:00,VALID,919.105,VALID,0,VALID,93.1234,VALID,-0.0339617,VALID,18.2888,VALID,359,VALID,0.0537109,
2003-09-20, 02:47:00,VALID,919.105,VALID,0,VALID,93.5723,VALID,-0.0509425,VALID,18.2533,VALID,359,VALID,0,
2003-09-20, 02:48:00,VALID,919.108,VALID,0,VALID,93.6232,VALID,-0.0339617,VALID,18.2144,VALID,359,VALID,0.0240234,
2003-09-20, 02:49:00,VALID,919.112,VALID,0,VALID,93.9818,VALID,-0.0339617,VALID,18.2081,VALID,359,VALID,0.0771234,
2003-09-20, 02:50:00,VALID,919.122,VALID,0,VALID,94.0759,VALID,-0.0169808,VALID,18.1823,VALID,359,VALID,0.0230263,
2003-09-20, 02:51:00,VALID,919.124,VALID,0,VALID,94.2946,VALID,-0.0679233,VALID,18.1828,VALID,359,VALID,0,
2003-09-20, 02:52:00,VALID,919.125,VALID,0,VALID,94.6481,VALID,-0.0339617,VALID,18.189,VALID,359,VALID,0.00123355,
2003-09-20, 02:53:00,VALID,919.127,VALID,0,VALID,94.4472,VALID,-0.0169808,VALID,18.1786,VALID,359,VALID,0,
2003-09-20, 02:54:00,VALID,919.142,VALID,0,VALID,94.3391,VALID,-0.0169808,VALID,18.1855,VALID,359,VALID,0,
2003-09-20, 02:55:00,VALID,919.133,VALID,0,VALID,94.4421,VALID,-0.0339617,VALID,18.1664,VALID,359,VALID,0,
2003-09-20, 02:56:00,VALID,919.111,VALID,0,VALID,94.8566,VALID,-0.0509425,VALID,18.1692,VALID,359,VALID,0.0720703,
2003-09-20, 02:57:00,VALID,919.106,VALID,0,VALID,94.629,VALID,-0.0339617,VALID,18.1689,VALID,359,VALID,0.0440705,
2003-09-20, 02:58:00,VALID,919.087,VALID,0,VALID,94.5832,VALID,-0.0339617,VALID,18.1431,VALID,359,VALID,0,
2003-09-20, 02:59:00,VALID,919.078,VALID,0,VALID,94.6239,VALID,-0.0169808,VALID,18.127,VALID,359,VALID,0,
2003-09-20, 03:00:00,VALID,919.091,VALID,0,VALID,94.5031,VALID,0,VALID,18.0975,VALID,359,VALID,0,
2003-09-20, 03:01:00,VALID,919.087,VALID,0,VALID,94.4967,VALID,0,VALID,18.0855,VALID,359,VALID,0,
2003-09-20, 03:02:00,VALID,919.096,VALID,0,VALID,94.2653,VALID,0,VALID,18.0495,VALID,359,VALID,0,
2003-09-20, 03:03:00,VALID,919.072,VALID,0,VALID,93.7071,VALID,-0.0339617,VALID,17.9851,VALID,359,VALID,0.0202703,
2003-09-20, 03:04:00,VALID,919.071,VALID,0,VALID,94.1216,VALID,-0.0509425,VALID,17.9111,VALID,359,VALID,0.316211,
2003-09-20, 03:05:00,VALID,919.052,VALID,0,VALID,95.0537,VALID,-0.0339617,VALID,17.859,VALID,359,VALID,0.303886,
2003-09-20, 03:06:00,VALID,919.048,VALID,0,VALID,96.1066,VALID,0,VALID,17.8819,VALID,359,VALID,0.290296,
2003-09-20, 03:07:00,VALID,919.062,VALID,0,VALID,95.5802,VALID,0,VALID,17.8888,VALID,359,VALID,0.337941,
2003-09-20, 03:08:00,VALID,919.079,VALID,0,VALID,94.1382,VALID,-0.0169808,VALID,17.7626,VALID,359,VALID,0.276933,
2003-09-20, 03:09:00,VALID,919.086,VALID,0,VALID,94.4548,VALID,-0.0339617,VALID,17.6951,VALID,359,VALID,0.0102163,
2003-09-20, 03:10:00,VALID,919.081,VALID,0,VALID,95.425,VALID,0,VALID,17.6916,VALID,359,VALID,0,
2003-09-20, 03:11:00,VALID,919.068,VALID,0,VALID,96.1969,VALID,-0.0169808,VALID,17.7274,VALID,359,VALID,0,
2003-09-20, 03:12:00,VALID,919.047,VALID,0,VALID,96.8772,VALID,0,VALID,17.7889,VALID,359,VALID,0.153906,
2003-09-20, 03:13:00,VALID,919.053,VALID,0,VALID,96.9891,VALID,0,VALID,17.8332,VALID,359,VALID,0.0797276,
2003-09-20, 03:14:00,VALID,919.06,VALID,0,VALID,96.7259,VALID,0,VALID,17.8849,VALID,359,VALID,0.134868,
2003-09-20, 03:15:00,VALID,919.05,VALID,0,VALID,96.4576,VALID,-0.0169808,VALID,17.9144,VALID,359,VALID,0.0176282,
2003-09-20, 03:16:00,VALID,919.061,VALID,0,VALID,96.2681,VALID,0.0169808,VALID,17.9141,VALID,359,VALID,0.00123355,
2003-09-20, 03:17:00,VALID,919.034,VALID,0,VALID,96.3507,VALID,-0.0169808,VALID,17.9397,VALID,359,VALID,0.0132212,
2003-09-20, 03:18:00,VALID,919.029,VALID,0,VALID,96.1778,VALID,-0.0339617,VALID,17.9531,VALID,359,VALID,0.119531,
2003-09-20, 03:19:00,VALID,919.013,VALID,0,VALID,96.3596,VALID,0,VALID,17.9688,VALID,360,VALID,0.107475,
2003-09-20, 03:20:00,VALID,919.003,VALID,0,VALID,96.0875,VALID,0,VALID,17.9882,VALID,60,VALID,0.452344,
2003-09-20, 03:21:00,VALID,918.987,VALID,0,VALID,95.7989,VALID,-0.0339617,VALID,17.9951,VALID,69,VALID,0.439503,
2003-09-20, 03:22:00,VALID,918.983,VALID,0,VALID,95.7378,VALID,-0.0339617,VALID,17.9824,VALID,72,VALID,0.384457,
2003-09-20, 03:23:00,VALID,918.99,VALID,0,VALID,95.4479,VALID,0,VALID,17.9593,VALID,72,VALID,0.016226,
2003-09-20, 03:24:00,VALID,918.975,VALID,0,VALID,95.6374,VALID,-0.0169808,VALID,17.9434,VALID,72,VALID,0.220806,
2003-09-20, 03:25:00,VALID,918.984,VALID,0,VALID,95.6132,VALID,-0.0169808,VALID,17.93,VALID,72,VALID,0.340345,
2003-09-20, 03:26:00,VALID,918.977,VALID,0,VALID,94.8935,VALID,0,VALID,17.8726,VALID,78,VALID,0.433398,
2003-09-20, 03:27:00,VALID,918.974,VALID,0,VALID,94.7256,VALID,0.0169808,VALID,17.7749,VALID,85,VALID,0.400127,
2003-09-20, 03:28:00,VALID,918.978,VALID,0,VALID,94.8426,VALID,-0.0849042,VALID,17.6951,VALID,87,VALID,0.350781,
2003-09-20, 03:29:00,VALID,918.99,VALID,0,VALID,94.9889,VALID,-0.0849042,VALID,17.6174,VALID,87,VALID,0.0298478,
2003-09-20, 03:30:00,VALID,919.003,VALID,0,VALID,95.2178,VALID,-0.0509425,VALID,17.5729,VALID,87,VALID,0,
2003-09-20, 03:31:00,VALID,918.993,VALID,0,VALID,95.4733,VALID,-0.0679233,VALID,17.5143,VALID,87,VALID,0.016226,
2003-09-20, 03:32:00,VALID,919.003,VALID,0,VALID,95.6768,VALID,-0.101885,VALID,17.4592,VALID,95,VALID,0.63384,
2003-09-20, 03:33:00,VALID,918.994,VALID,0,VALID,96.8416,VALID,-0.0679233,VALID,17.4661,VALID,98,VALID,0.644431,
2003-09-20, 03:34:00,VALID,918.998,VALID,0,VALID,96.9319,VALID,-0.0509425,VALID,17.4693,VALID,98,VALID,0.525,
2003-09-20, 03:35:00,VALID,918.998,VALID,0,VALID,96.7335,VALID,-0.0679233,VALID,17.4435,VALID,98,VALID,0.305321,
2003-09-20, 03:36:00,VALID,919,VALID,0,VALID,96.5885,VALID,-0.0339617,VALID,17.4048,VALID,98,VALID,0.469531,
2003-09-20, 03:37:00,VALID,918.975,VALID,0,VALID,96.4461,VALID,-0.0339617,VALID,17.3499,VALID,98,VALID,0.517829,
2003-09-20, 03:38:00,VALID,918.965,VALID,0,VALID,96.7602,VALID,-0.0509425,VALID,17.3017,VALID,98,VALID,0.393709,
2003-09-20, 03:39:00,VALID,918.955,VALID,0,VALID,97.2688,VALID,-0.0509425,VALID,17.3211,VALID,101,VALID,0.407452,